Погода в Балте

Россия / Республика Северная Осетия — Алания     42°55′05″N   44°37′39″E
темп.,
°C
ветер,
м/с
пор.,
м/с
влажн.,
%
обл.,
%
осадки,
мм/ч
давл.,
гПа
погр.,
м
10 мая, пн
пн1000:00+3юз3598100 3.9 1024441
03:00+2юз3593100 5.2 1024406
06:00+2ююз2488100 0.8 1024398
09:00+5сз2378100 1.7 10231103
12:00+7ссв226895 0.6 10211327
15:00+7всв1272100 1.6 10211039
18:00+4юв1294100 2.1 1022373
21:00+3ю129699 3.8 1023223
11 мая, вт
вт1100:000ю22916 0.0 102328
03:00−1ю22879 0.0 102338
06:00+2ююв11822 0.0 101964
09:00+8ссв226838 0.0 1018721
12:00+9ссв326598 0.0 10161061
15:00+10с236899 0.0 1016892
18:00+9с137797 0.0 1016239
21:00+6ююв118915 0.0 101819
12 мая, ср
ср1200:00+4ю21905 0.0 101821
03:00+4ю21910 0.0 101715
06:00+6ююв01840 0.0 101760
09:00+11с216815 0.0 1016616
12:00+16с325830 0.0 10151105
15:00+16с326262 0.0 10161022
18:00+14ссв237520 0.0 1017325
21:00+10ююв22887 0.0 101719
13 мая, чт
чт1300:00+9ююв22820 0.0 101620
03:00+9ююв22770 0.0 101619
06:00+12ююв11710 0.0 101627
09:00+18с22520 0.0 1015486
12:00+22с32470 0.0 1014999
15:00+22ссв32492 0.1 10141106
18:00+18св127127 0.3 1015148
21:00+14ю22802 0.3 101720
14 мая, пт
пт1400:00+13ю22690 0.0 101626
03:00+12ю32637 0.0 101627
06:00+14ю22610 0.0 101630
09:00+22с21410 0.0 1015478
12:00+25с33400 0.0 10141039
15:00+25ссв32415 0.1 10131194
18:00+21ссв12655 0.2 1014101
21:00+16ю32715 0.2 101532